Location: Gro� Glienicke
(52.4675°N, 13.1079°E)
Time: 18:41:59
(UTC+00:00)

Cosmos 1869 - Pass Details

Date: 06 July 2020
Orbit: 520 x 563 km, 82.5° (Epoch: 12 August)

Event Time Altitude Azimuth Distance (km) Brightness Sun altitude
Rises 20:16:38 0° 355° (N) 2,700 7.9 -5.8°
Reaches altitude 10° 20:18:58 10° 6° (N) 1,812 6.7 -6.0°
Maximum altitude 20:22:34 32° 71° (ENE) 956 4.4 -6.3°
Drops below altitude 10° 20:26:11 10° 135° (SE) 1,822 5.3 -6.7°
Enters shadow 20:26:31 - 137° (SE) 1,941 5.4 -6.7°
